Home   Weather   Lund   Past weeks
Flag for Sweden

Past Weather in Lund, Sweden — Yesterday and Last 2 Weeks

Now
54 °F

Passing clouds.


Feels Like: 50 °F
Forecast: 56 / 50 °F
Wind: 12 mph from Northwest

Location: Malmo / Sturup

Current Time: Oct 16, 2019 at 10:11:28 pm

Latest Report: Oct 16, 2019 at 9:20 pm


Visibility: N/A

Pressure: 29.68 "Hg

Humidity: 100%

Dew Point: 54 °F

Location of LundLocation

Past Weather in Lund — Graph

°F

Lund Temperature Yesterday

Maximum temperature yesterday: 59 °F (at 11:50 am)
Minimum temperature yesterday: 48 °F (at 12:20 am)
Average temperature yesterday: 53 °F

High & Low Weather Summary for the Past Weeks

 TemperatureHumidityPressure
High63 °F (Oct 13, 11:50 pm)100% (Oct 2, 6:50 pm)30.24 "Hg (Oct 2, 6:50 pm)
Low27 °F (Oct 7, 4:20 am)50% (Oct 7, 3:50 pm)29.42 "Hg (Oct 1, 8:20 pm)
Average48 °F87%29.79 "Hg
* Reported Oct 1 8:20 pm — Oct 16 8:50 pm, Lund. Weather by CustomWeather, © 2019

Note: Actual official high and low records may vary slightly from our data, if they occured in-between our weather recording intervals... More about our weather records

Advertising

Lund Weather History for the Previous 24 Hours

Scroll right to see more
 ConditionsComfort  
Time TempWeatherWind HumidityBarometerVisibility
8:50 pm
Wed, Oct 16
54 °FPassing clouds.9 mph100%29.68 "Hg5 mi
8:20 pm54 °FDrizzle. Low clouds.8 mph100%29.68 "Hg5 mi
7:50 pm54 °FLight rain. Mostly cloudy.9 mph100%29.68 "Hg5 mi
7:20 pm54 °FDrizzle. Mostly cloudy.9 mph100%29.68 "Hg5 mi
6:50 pm54 °FFog.7 mph94%29.68 "Hg3 mi
6:20 pm54 °FFog.9 mph94%29.65 "Hg1 mi
5:50 pm54 °FFog.9 mph94%29.65 "Hg3 mi
5:20 pm54 °FDrizzle. Mostly cloudy.12 mph100%29.65 "Hg4 mi
4:50 pm52 °FDrizzle. Low clouds.7 mph100%29.65 "Hg3 mi
4:20 pm54 °FFog.8 mph94%29.65 "Hg2 mi
3:50 pm52 °FFog.9 mph100%29.65 "Hg1 mi
3:20 pm54 °FFog.7 mph100%29.65 "Hg1 mi
2:50 pm54 °FFog.6 mph100%29.65 "Hg1 mi
2:20 pm54 °FFog.6 mph94%29.65 "Hg1 mi
1:50 pm54 °FFog.6 mph100%29.65 "Hg3 mi
1:20 pm54 °FFog.6 mph94%29.65 "Hg1 mi
12:50 pm52 °FFog.6 mph100%29.65 "Hg1 mi
12:20 pm52 °FFog.6 mph100%29.65 "Hg1 mi
11:50 am52 °FLow clouds.5 mph100%29.65 "Hg1 mi
11:20 am52 °FFog.6 mph94%29.65 "Hg1 mi
10:50 am52 °FFog.5 mph94%29.65 "Hg1 mi
10:20 am52 °FFog.3 mph94%29.65 "Hg1 mi
9:50 am50 °FLow clouds.No wind100%29.65 "Hg1 mi
9:20 am50 °FFog.2 mph100%29.65 "Hg1 mi
8:50 am50 °FFog.2 mph100%29.65 "Hg0 mi
8:20 am50 °FFog.3 mph100%29.65 "Hg1 mi
7:50 am50 °FFog.2 mph100%29.65 "Hg1 mi
7:20 am50 °FFog.3 mph100%29.65 "Hg1 mi
6:50 am50 °FFog.5 mph100%29.65 "Hg0 mi
6:20 am50 °FFog.3 mph100%29.65 "Hg0 mi
5:50 am52 °FFog.5 mph100%29.65 "Hg0 mi
5:20 am52 °FFog.5 mph100%29.68 "Hg0 mi
4:50 am50 °FFog.3 mph100%29.68 "Hg0 mi
4:20 am52 °FFog.3 mph94%29.68 "Hg0 mi
3:50 am52 °FFog.2 mph94%29.68 "Hg0 mi
3:20 am52 °FFog.5 mph94%29.68 "Hg0 mi
2:50 am52 °FFog.3 mph100%29.68 "Hg0 mi
2:20 am52 °FFog.5 mph94%29.68 "Hg0 mi
1:50 am52 °FFog.3 mph94%29.68 "Hg0 mi
1:20 am52 °FFog.6 mph100%29.68 "Hg0 mi
12:20 am52 °FFog.6 mph94%29.71 "Hg0 mi
11:50 pm
Tue, Oct 15
52 °FFog.6 mph94%29.71 "Hg0 mi
10:50 pm52 °FFog.6 mph100%29.71 "Hg0 mi
10:20 pm52 °FFog.1 mph100%29.71 "Hg0 mi
Weather by CustomWeather, © 2019

See weather overview